Theta_e
328 321 312 310 303 300 298 301 305 306 307 312 313 310 310 313 310 307 331 335 338 340 344 346 347 349 349 349 349 348 346 343 342 341 340 339 339 339 338 338 340 340 339 340 340 338 335 334 333
322 317 311 304 298 295 296 301 303 306 313 317 317 316 314 313 323 326 330 335 340 342 345 346 345 348 348 348 348 348 346 343 341 339 339 339 338 337 337 337 338 339 338 340 338 336 334 335 335
322 312 306 300 296 295 296 302 304 311 315 314 315 318 317 316 324 327 333 339 341 342 344 344 345 347 347 347 347 347 346 344 341 338 338 338 337 337 337 337 337 336 338 338 337 335 335 335 335
315 311 305 299 297 300 301 304 308 312 311 316 316 313 320 326 326 331 338 339 339 340 342 343 345 346 346 346 346 347 346 345 343 339 337 336 335 336 335 335 338 335 337 339 335 335 335 335 334
315 306 297 298 298 300 301 307 310 309 309 313 313 311 316 324 331 335 337 337 336 337 340 343 344 345 346 346 345 346 346 345 343 341 338 336 335 335 334 335 335 335 336 336 335 335 335 334 334
311 306 297 293 297 302 303 308 309 308 310 313 313 314 317 328 330 332 336 335 335 335 338 342 337 339 342 344 345 344 345 344 343 341 337 336 335 335 334 334 335 335 335 336 336 335 334 333 333
310 305 298 298 297 300 302 308 307 307 310 312 316 311 317 324 330 333 334 333 334 335 336 339 339 337 335 338 339 341 342 342 341 340 338 337 335 334 333 334 335 334 335 335 334 334 334 332 330
311 308 301 300 297 299 302 307 307 308 308 318 318 310 312 324 331 332 332 332 332 334 335 335 336 337 337 338 331 333 336 337 338 336 333 331 330 329 330 330 334 334 334 333 333 332 332 332 329
313 305 301 301 300 302 300 303 308 312 313 315 317 314 318 327 330 330 328 329 328 331 332 333 333 334 333 333 328 328 329 330 330 329 326 326 331 330 330 329 332 334 333 332 330 329 330 331 327
307 304 304 307 306 303 301 301 305 308 311 312 315 319 322 328 327 326 325 324 324 325 329 331 331 331 330 329 329 330 329 329 330 330 329 329 328 329 328 325 326 328 329 331 329 327 324 323 325
307 302 306 306 306 303 301 300 301 306 305 310 311 315 320 325 324 324 324 324 324 326 328 329 329 329 328 328 328 328 327 326 327 327 326 326 325 326 326 326 325 325 319 322 323 323 323 323 323
304 309 309 307 305 300 299 300 299 305 308 309 310 318 321 322 322 322 322 323 325 325 327 330 328 327 327 327 327 326 325 324 325 325 325 324 323 323 322 323 322 322 321 321 322 322 323 323 322
305 307 310 311 308 308 307 302 299 299 304 309 314 318 320 322 323 324 324 325 324 323 327 329 327 327 326 325 325 325 324 324 324 324 324 324 323 321 320 320 320 320 321 321 321 321 322 322 322
305 308 307 309 309 309 303 304 301 304 309 312 314 315 319 321 323 323 324 323 323 324 326 329 327 326 325 325 324 324 324 324 323 323 324 324 324 322 319 318 318 318 320 321 321 321 322 322 322
305 301 303 305 307 308 308 302 300 309 307 308 312 314 316 320 323 323 324 324 324 324 326 327 327 326 325 325 324 324 324 323 322 322 323 324 324 322 320 318 318 319 320 320 321 321 321 322 321
301 300 293 299 305 307 306 299 308 309 306 307 308 312 315 317 320 323 325 326 326 325 323 326 327 325 325 325 324 324 323 323 323 323 324 324 324 323 320 318 319 321 320 320 320 320 320 320 320
296 288 292 295 304 304 302 299 307 308 304 306 306 309 312 315 317 320 323 324 326 326 324 324 327 326 325 324 324 324 324 323 323 322 323 324 324 323 322 320 321 321 321 320 320 320 320 319 319
289 292 292 292 299 300 297 300 306 305 303 305 306 305 310 313 316 320 322 323 325 326 326 325 325 327 326 325 324 323 323 323 323 323 323 324 324 323 322 321 321 321 320 320 320 320 319 320 319
293 292 291 295 300 298 297 299 303 306 302 302 302 304 306 310 316 319 321 322 322 325 326 325 323 324 325 324 322 322 320 322 321 322 324 324 324 324 323 322 321 321 320 320 320 320 319 318 318
294 291 290 295 298 296 295 295 300 301 302 303 305 305 303 307 312 315 318 320 321 322 325 326 324 324 324 325 325 325 324 322 323 322 322 324 324 324 324 323 322 321 320 320 320 319 317 318 318
297 294 292 291 293 294 292 291 296 298 301 303 303 305 306 305 306 311 315 318 321 321 322 324 326 324 324 325 324 320 320 319 320 319 320 320 323 324 323 323 323 321 321 320 320 319 318 318 316
293 299 297 294 293 286 292 285 291 295 296 299 302 303 304 306 304 309 314 316 319 321 323 324 325 326 324 324 323 322 321 319 321 322 322 321 321 321 322 323 323 322 321 321 321 320 320 319 317
295 299 296 296 292 291 290 288 290 292 293 297 301 302 305 306 304 305 309 315 319 321 322 323 324 324 326 325 324 322 322 323 324 322 320 320 320 321 321 322 322 321 321 322 322 320 320 319 320
300 296 295 294 293 285 290 289 288 291 294 297 300 302 303 304 304 305 307 313 316 320 322 323 322 322 325 326 324 324 323 323 321 321 320 320 320 320 321 321 322 322 322 321 321 321 320 320 320
298 294 285 283 283 283 287 286 291 292 295 297 298 301 303 303 303 304 303 307 314 317 319 321 321 321 322 324 325 325 324 324 323 322 322 322 321 321 320 321 321 321 322 322 322 321 320 319 319
295 294 286 279 278 282 284 282 287 296 299 300 299 301 300 300 302 302 302 303 310 315 318 319 318 319 321 323 325 326 326 325 324 325 324 323 323 322 322 320 321 321 322 321 321 321 320 320 319
293 290 293 282 271 278 282 287 291 294 297 297 296 297 300 302 300 301 302 300 304 311 316 319 318 318 320 321 324 325 326 325 325 325 324 323 323 321 320 320 320 321 320 321 320 320 319 319 319
296 298 287 287 279 274 280 282 286 288 295 299 298 297 300 301 302 301 300 301 301 306 314 318 319 318 319 320 322 323 324 325 325 325 322 322 322 320 318 318 319 319 319 320 319 320 320 319 319
292 292 292 290 284 278 278 283 289 293 295 297 299 298 299 300 299 299 298 299 300 302 309 315 318 317 317 318 319 320 321 322 323 322 321 321 320 318 317 317 317 318 318 319 319 319 319 318 318
296 293 293 287 283 282 280 284 290 293 294 294 294 295 295 296 298 298 298 295 296 298 305 311 315 316 316 316 317 318 319 320 320 320 320 319 318 316 317 317 317 317 318 319 318 318 318 318 317
Wind_Speed
6 5 2 5 5 5 1 2 1 3 2 1 3 4 4 2 3 2 0 4 9 9 7 9 11 12 13 13 13 15 14 15 16 15 15 15 16 16 17 15 15 17 17 17 17 18 17 17 17
3 5 5 3 5 2 4 2 5 4 4 6 4 2 2 1 1 4 7 4 10 10 8 9 10 11 13 12 12 14 15 15 15 14 14 15 16 15 16 15 15 14 15 17 17 17 17 17 17
4 5 4 5 3 3 4 3 4 2 5 2 3 3 2 2 2 9 1 10 10 10 9 8 10 10 11 12 12 12 14 14 15 14 15 15 16 16 14 14 15 15 15 18 17 16 17 16 16
5 6 4 3 2 3 3 0 4 7 2 3 3 3 1 1 6 5 10 12 10 9 8 8 9 10 10 11 12 12 14 14 14 15 14 14 15 15 15 14 13 15 15 16 16 16 16 15 15
5 4 4 2 2 2 2 1 6 5 3 2 2 4 1 1 3 11 12 10 11 9 7 8 9 11 10 10 11 12 12 13 15 14 14 14 15 14 14 14 15 15 14 14 16 16 15 14 14
4 4 2 3 4 3 3 3 5 4 3 3 3 6 4 1 9 11 11 10 8 9 7 7 8 9 9 9 10 11 12 14 16 15 14 14 13 13 14 13 13 14 14 14 14 15 14 13 12
8 3 2 3 4 5 3 3 2 4 5 4 6 5 1 5 6 12 9 9 8 7 7 6 7 7 8 9 9 10 12 12 15 14 13 11 10 12 12 11 12 13 13 14 14 13 12 12 11
3 6 0 2 3 6 3 2 2 3 4 2 4 4 4 6 10 9 9 9 8 7 7 8 6 6 6 7 8 9 11 11 12 12 12 10 9 11 10 8 9 12 13 13 12 11 10 11 11
3 4 7 5 6 4 2 1 1 1 4 3 4 3 1 11 13 11 8 8 7 5 7 7 7 7 7 6 5 10 14 11 12 10 9 10 6 6 6 6 8 9 10 12 11 11 9 10 10
4 4 16 9 8 3 4 1 3 2 2 3 3 2 2 14 14 14 11 12 12 12 9 8 8 8 7 6 6 6 7 8 9 9 7 5 6 4 4 5 7 8 9 9 10 9 9 6 4
4 6 5 7 8 7 4 2 1 4 4 7 7 5 10 12 14 14 12 15 15 13 9 9 9 8 8 6 5 4 4 4 4 7 5 5 5 4 3 3 2 3 5 3 4 5 3 4 3
3 5 4 3 7 7 5 2 2 6 5 3 5 6 13 15 16 15 14 15 13 13 14 12 10 9 8 5 5 5 5 5 5 6 6 5 3 4 3 3 3 3 2 3 3 3 4 4 4
2 2 4 3 6 5 0 6 5 7 8 3 2 9 16 16 16 14 14 11 11 14 12 12 10 10 9 8 6 6 6 5 6 6 7 5 5 4 3 3 2 2 2 1 2 3 3 3 4
7 4 2 1 2 4 5 4 5 5 2 4 5 7 11 16 18 14 13 13 13 13 13 14 12 11 10 9 9 7 6 7 6 5 6 8 5 5 5 4 4 3 3 2 2 3 3 2 3
3 2 3 5 4 4 5 6 11 10 6 6 6 6 9 12 15 19 17 15 15 13 12 15 15 12 12 11 9 7 7 7 7 7 8 8 6 6 6 4 3 3 3 3 2 2 2 2 2
3 1 3 3 8 5 7 14 9 12 10 14 10 8 9 13 15 13 12 13 13 13 14 13 12 13 13 11 8 7 7 7 7 6 7 9 8 8 6 5 5 4 4 3 3 3 3 4 4
3 4 5 5 9 4 7 7 11 7 10 14 10 10 10 10 10 13 14 13 13 14 14 13 13 15 13 11 8 8 9 8 7 7 7 9 9 9 8 6 6 6 5 5 4 4 4 4 4
6 5 3 4 3 2 3 16 11 2 7 13 8 7 10 12 17 16 14 13 12 13 13 14 12 13 12 8 7 6 6 7 7 7 8 10 8 10 9 7 7 6 5 4 4 5 4 3 3
6 5 6 3 5 4 6 17 17 11 6 10 10 12 13 14 10 8 12 13 12 13 14 15 14 13 11 8 9 7 9 8 7 8 11 11 10 10 9 7 7 7 7 8 8 5 6 5 4
3 4 4 4 2 6 6 15 15 11 10 14 16 15 12 11 7 10 13 14 16 17 17 15 16 15 14 10 9 6 7 6 8 8 9 11 11 11 10 10 9 9 7 8 8 8 3 4 7
13 10 3 4 3 3 5 11 16 8 14 14 13 17 16 17 15 15 14 16 16 18 17 17 18 17 15 15 8 4 3 2 5 6 8 11 12 11 12 11 9 9 8 7 9 9 10 6 6
18 12 9 6 3 6 3 10 11 5 11 15 17 17 20 19 15 16 15 16 18 19 16 18 17 17 16 16 12 15 12 11 9 8 8 7 11 12 12 12 11 11 8 9 9 9 9 8 8
4 6 9 6 4 3 6 8 10 3 7 16 14 17 19 18 16 19 19 20 18 18 20 19 19 18 17 18 17 13 14 10 7 6 8 10 9 12 13 13 12 11 9 10 11 10 11 9 9
9 4 2 3 4 10 17 12 10 11 15 18 8 11 16 16 16 19 17 15 14 14 15 16 19 19 19 19 19 18 18 14 9 9 9 8 8 9 12 11 11 11 10 11 11 12 12 11 10
15 12 5 7 6 12 6 10 24 7 7 11 11 13 12 11 13 15 15 14 16 16 17 16 19 20 19 19 19 20 20 18 17 15 12 11 8 7 10 12 11 10 12 12 10 10 11 11 11
22 16 6 9 8 9 3 12 10 14 19 19 10 13 7 8 8 11 14 15 17 18 18 18 19 19 19 20 20 19 19 12 13 14 11 10 10 9 9 10 11 13 11 11 10 9 10 10 11
9 14 9 4 2 2 6 12 7 8 11 11 12 9 14 14 11 12 12 13 14 15 18 20 19 18 18 20 18 18 16 17 15 16 12 10 9 8 10 11 11 12 12 12 11 9 10 10 10
13 10 8 4 9 8 7 9 13 2 15 17 13 13 15 12 10 13 8 11 11 11 12 15 17 18 19 19 18 16 17 17 15 11 12 13 10 10 9 10 11 10 10 10 10 10 11 10 9
9 12 8 5 4 6 9 11 10 16 13 17 15 10 10 8 9 10 9 7 9 7 9 13 13 14 13 14 14 14 14 14 12 12 12 12 10 10 11 11 11 11 11 10 10 10 10 10 11
18 10 12 7 7 5 2 15 3 9 9 5 8 9 7 8 9 7 9 7 7 10 10 13 13 14 14 13 13 14 12 12 12 12 12 10 11 9 10 10 10 10 10 9 10 11 9 11 12
Wind_Direction
343 340 51 38 51 61 290 267 114 131 147 211 104 148 185 68 161 213 130 180 148 140 143 140 132 125 123 123 123 121 116 111 107 107 107 109 108 106 104 104 99 95 92 92 90 89 87 89 89
7 8 37 81 83 54 272 246 171 185 128 126 88 67 80 142 124 118 137 177 153 137 135 135 132 133 131 131 125 127 122 115 111 112 110 113 108 105 106 109 109 105 98 101 95 93 93 94 93
68 57 59 82 104 173 231 222 138 105 143 167 108 41 132 170 184 159 173 151 141 130 133 138 138 140 136 133 134 130 127 125 121 120 114 113 109 105 103 107 110 106 99 101 98 97 99 97 94
19 13 44 79 185 243 213 163 140 144 290 56 122 96 290 257 158 171 152 140 139 130 132 144 142 142 137 137 142 136 136 133 127 121 116 115 109 106 109 109 113 105 99 106 102 104 100 98 94
39 68 352 357 260 256 261 252 158 156 140 150 166 183 172 68 105 146 149 148 147 142 141 145 144 141 138 136 142 137 132 140 130 123 121 117 112 107 112 112 114 111 105 105 106 105 103 98 91
75 106 3 299 288 307 307 168 153 149 147 158 118 145 181 63 143 159 152 154 151 149 146 140 139 134 130 129 142 141 132 129 129 126 124 121 118 117 115 116 118 118 114 108 108 107 106 101 92
110 106 216 262 303 318 10 137 178 176 154 223 150 138 254 191 169 157 153 144 149 146 144 147 146 140 128 134 134 140 133 130 128 127 123 118 122 123 124 117 120 120 116 109 106 110 108 100 94
105 110 103 267 124 294 344 212 302 183 198 88 154 198 208 180 153 139 145 148 154 154 156 155 148 143 143 148 126 121 124 111 119 114 116 114 123 133 125 109 120 125 118 112 109 103 107 112 99
97 152 212 224 175 249 358 284 343 80 121 254 193 159 6 134 139 143 154 152 160 161 162 159 152 152 149 149 141 121 116 113 115 114 119 118 125 121 117 109 104 108 114 113 103 96 96 107 93
127 205 207 188 175 222 305 201 201 174 144 248 275 160 93 151 160 166 176 176 181 177 178 172 160 162 152 152 153 135 130 144 144 142 145 127 122 118 108 87 90 92 88 80 83 91 95 102 108
184 193 202 184 167 147 271 269 273 162 234 221 213 168 167 169 178 180 183 186 184 184 180 185 170 168 161 159 158 150 142 134 128 123 128 126 129 123 119 113 99 104 88 103 90 93 99 110 134
219 226 191 194 149 145 206 280 246 202 236 159 245 158 171 180 191 188 185 187 186 187 188 185 180 167 172 162 169 162 157 158 153 156 148 147 140 141 149 155 148 145 141 123 112 111 121 124 121
210 242 194 196 166 169 56 227 215 251 263 265 124 157 182 193 198 200 199 188 178 191 193 184 183 176 173 172 172 173 179 175 174 171 172 162 162 167 159 169 171 164 148 128 121 129 141 139 144
199 210 257 197 193 197 181 240 163 240 229 168 166 188 191 199 202 200 195 193 188 190 195 187 189 183 172 180 182 184 185 182 180 186 184 178 173 167 183 182 182 182 190 180 167 170 168 165 165
136 182 275 238 193 236 174 255 216 223 205 235 213 205 201 204 201 210 207 200 193 195 190 194 189 183 181 186 187 185 191 188 190 192 187 184 178 182 180 193 201 199 194 201 199 166 156 172 163
152 94 220 238 159 244 157 253 243 210 196 237 219 216 210 211 210 209 208 204 195 190 192 194 189 188 186 186 187 189 191 197 203 198 193 188 187 188 185 197 207 196 191 192 196 187 187 197 203
271 214 211 293 199 133 186 262 267 187 195 232 224 220 215 226 207 211 207 199 192 193 190 192 191 193 191 189 186 191 199 204 206 199 198 200 198 193 198 202 210 198 194 200 197 197 210 199 202
213 216 231 223 195 186 180 260 261 230 213 246 253 232 223 223 225 213 204 199 192 193 193 193 192 191 188 183 184 199 208 212 208 206 203 200 204 202 204 207 210 202 205 205 201 211 207 219 207
154 181 192 219 229 186 217 250 259 253 224 247 244 233 230 233 243 210 200 194 187 191 193 196 188 192 181 185 190 205 213 214 216 210 207 201 204 204 209 214 210 203 205 210 207 202 213 210 164
144 183 225 257 172 190 261 263 258 246 234 230 235 243 231 227 205 217 202 195 198 197 199 198 198 189 189 194 197 197 194 212 216 207 207 206 201 201 204 209 212 205 208 212 208 197 190 220 187
216 217 188 221 328 230 326 275 263 244 234 239 232 235 240 225 217 230 199 200 200 204 197 197 201 194 195 195 182 149 158 175 191 207 209 212 207 204 206 208 210 206 206 212 208 202 205 217 201
219 192 212 231 280 263 137 289 263 263 248 239 240 222 230 230 217 226 204 202 201 208 194 203 199 198 196 188 189 198 203 210 213 211 211 205 205 208 209 211 208 208 205 211 208 203 209 212 221
204 150 189 194 201 328 217 260 273 242 251 252 239 235 236 232 210 219 214 206 203 198 198 199 198 197 193 194 200 200 212 217 214 194 188 206 205 211 211 209 208 210 209 216 210 207 207 206 224
153 107 135 169 203 244 235 227 234 235 236 256 237 228 230 228 213 223 221 210 207 203 198 198 198 201 197 197 201 203 210 210 203 196 206 207 207 210 214 209 211 215 214 214 213 216 213 212 221
176 166 210 218 190 241 198 206 244 240 245 237 242 240 239 224 216 220 219 202 204 194 195 195 196 205 201 199 201 205 208 206 210 207 209 207 206 204 209 201 208 214 217 220 216 213 216 213 221
190 184 199 204 186 245 111 231 243 220 228 250 235 247 264 251 235 224 218 215 209 201 195 193 196 203 197 198 204 207 211 210 212 214 211 213 211 211 196 200 211 216 217 214 210 217 221 218 225
190 199 204 82 60 46 209 270 273 249 244 253 251 239 246 244 226 233 220 212 212 204 199 194 196 202 198 199 202 206 205 208 211 211 206 206 209 202 191 197 205 212 215 215 211 221 227 222 230
195 151 189 178 183 229 247 257 240 225 233 245 254 241 247 244 235 231 219 212 216 211 201 198 202 202 199 198 199 201 202 205 210 203 203 204 203 198 191 197 206 212 214 212 208 222 228 225 228
183 198 197 157 187 183 251 255 205 204 209 232 239 262 269 259 230 223 220 214 211 203 192 196 197 195 195 195 198 201 201 202 199 202 204 203 198 188 197 199 202 207 212 211 212 220 225 222 231
206 205 208 203 216 238 157 258 214 219 225 225 273 277 265 247 242 227 221 203 202 206 198 197 195 195 194 189 191 199 198 192 194 203 206 196 198 190 200 200 206 210 215 213 210 216 219 223 232